Hourly Data Report for March 05, 2015

MIRAMICHI RCS
NEW BRUNSWICK

47°00'34.000" N
65°27'54.000" W
33.00 m
8100989
71744
ACQ

Download Data

Hourly Data (March 2015)
Hourly Data Report for March 5, 2015
TIME
LST
Temp Definition
°C
Dew Point Definition
°C
Rel Hum Definition
%
Precip. Amount Definition
mm

Wind Dir Definition
10's deg

Wind Spd Definition
km/h
Visibility Definition
km
Stn Press Definition
kPa
Hmdx Definition


Wind Chill Definition


Weather Definition


00:00 -3.6 -9.3 64 0.0 22 21   99.82   -10 LegendNANA
01:00 -3.6 -8.9 66 0.0 25 11   99.88   -8 LegendNANA
02:00 -3.8 -5.9 85 0.0 29 13   99.97   -9 LegendNANA
03:00 -3.8 -6.3 83 0.0 24 16   100.01   -9 LegendNANA
04:00 -4.3 -6.9 82 0.0 30 9   100.00   -8 LegendNANA
05:00 -5.8 -10.8 68 0.0 31 11   100.10   -11 LegendNANA
06:00 -7.2 -14.4 56 0.0 29 18   100.25   -14 LegendNANA
07:00 -8.6 -16.7 52 0.0 29 20   100.38   -16 LegendNANA
08:00 -10.0 -17.9 53 0.0 29 15   100.40   -17 LegendNANA
09:00 -9.9 -18.6 49 0.0 28 22   100.51   -18 LegendNANA
10:00 -8.9 -19.1 44 0.0 27 22   100.64   -17 LegendNANA
11:00 -8.9 -20.1 40 0.0 29 20   100.74   -16 LegendNANA
12:00 -8.6 -20.3 38 0.0 28 21   100.73   -16 LegendNANA
13:00 -8.8 -21.6 35 0.0 29 19   100.81   -16 LegendNANA
14:00 -9.2 -22.3 34 0.0 30 21   100.84   -17 LegendNANA
15:00 -8.9 -22.1 33 0.0 29 26   100.90   -18 LegendNANA
16:00 -9.0 -23.3 30 0.0 30 17   100.96   -16 LegendNANA
17:00 -9.7 -23.2 32 0.0 30 16   101.04   -17 LegendNANA
18:00 -10.7 -23.7 33 0.0 31 15   101.21   -18 LegendNANA
19:00 -12.2 -24.6 35 0.0 31 10   101.34   -18 LegendNANA
20:00 -13.1 -24.6 37 0.0 32 12   101.41   -20 LegendNANA
21:00 -14.1 -24.8 40 0.0 31 9   101.51   -20 LegendNANA
22:00 -15.5 -24.6 46 0.0 27 4   101.66   -18 LegendNANA
23:00 -17.4 -24.8 52 0.0 26 8   101.76   -23 LegendNANA

Notes on Data Quality.

Legend

  • E = Estimated
  • M = Missing
  • NA = Not Available*
  • [empty] = Indicates an unobserved value
Date modified: